Regional Weather Roundup
Issued by NWS

Home | Current Version | Previous Version | Graphics & Text | Print | Product List | Glossary On
Versions: 1 2 3 4 5 6 7 8 9 10 11 12 13 14 15 16 17 18 19 20 21 22 23 24 25 26 27 28 29 30 31 32 33 34 35 36 37 38 39 40 41 42 43 44 45 46 47 48 49 50
000
ASUS43 KOAX 210410
RWRNE

WEATHER ROUNDUP FOR NEBRASKA
NATIONAL WEATHER SERVICE OMAHA NE
1100 PM CDT MON APR 20 2015

NOTES: SATELLITE DATA IS BEING USED TO AUGMENT CLOUD COVER ABOVE
       12000 FEET.
       "FAIR" INDICATES FEW OR NO CLOUDS BELOW 12,000 FEET WITH NO
       SIGNIFICANT WEATHER AND/OR OBSTRUCTIONS TO VISIBILITY.

  * THESE STATIONS DO NOT REPORT WEATHER SUCH AS RAIN...SNOW OR FOG.

NEZ001>004-019>022-054>056-210500-
NEBRASKA PANHANDLE

CITY           SKY/WX    TMP DP  RH WIND       PRES   REMARKS
SCOTTSBLUFF    CLEAR     40  26  57 NW6       29.90R
ALLIANCE       CLEAR     36  26  67 N7        29.89R WCI  30
CHADRON        CLEAR     31  24  75 W6        29.90R WCI  25
KIMBALL        CLEAR     34  29  82 NW8       29.91R WCI  27
SIDNEY         CLEAR     30  26  85 W8        29.92R WCI  22
$$

NEZ057>060-069>072-079>082-210500-
SOUTHWEST NEBRASKA

CITY           SKY/WX    TMP DP  RH WIND       PRES   REMARKS
NORTH PLATTE   CLEAR     34  26  72 E3        29.88R
IMPERIAL       CLEAR     38  28  67 W7        29.90R WCI  33
LEXINGTON      CLEAR     38  32  79 NW3       29.88S
MCCOOK         CLEAR     44  30  57 S5        29.89R
OGALLALA       CLEAR     36  28  75 W5        29.89R WCI  32
$$

NEZ005>010-023>029-035>040-094-210500-
NORTH CENTRAL NEBRASKA

CITY           SKY/WX    TMP DP  RH WIND       PRES   REMARKS
VALENTINE      CLOUDY    42  26  53 W7        29.86R
AINSWORTH      CLOUDY    45  25  45 W6        29.85R
BROKEN BOW     CLEAR     37  26  64 CALM      29.86R
O`NEILL        CLOUDY    42  23  47 W8        29.82S
ORD            CLOUDY    42  28  57 NW7       29.84R
THEDFORD       PTCLDY    38  27  62 W3        29.87S
$$

NEZ041-046>049-061>064-073>077-083>087-210500-
SOUTH CENTRAL NEBRASKA

CITY           SKY/WX    TMP DP  RH WIND       PRES   REMARKS
GRAND ISLAND   CLOUDY    43  30  60 W8        29.86R
AURORA         CLOUDY    41  31  67 W8        29.86R
HASTINGS       CLEAR     42  29  59 W6        29.86S
HEBRON         CLEAR     39  28  63 W3        29.87S
HOLDREGE       CLEAR     40  30  67 CALM      29.88S
KEARNEY *      CLEAR     43  27  52 W6        29.88S
YORK           CLOUDY    41  32  70 W7        29.85S
$$

NEZ011>018-030>034-042>045-210500-
NORTHEAST NEBRASKA

CITY           SKY/WX    TMP DP  RH WIND       PRES   REMARKS
NORFOLK        PTCLDY    41  18  39 W9        29.80S
ALBION         PTCLDY    40  23  49 NW5       29.83S
BLAIR          CLEAR     44  18  35 W5        29.79S
COLUMBUS *     CLEAR     39  23  52 W5        29.84S
FREMONT        FAIR      40  27  59 W7        29.81S WCI  35
TEKAMAH        CLEAR     41  22  46 W12       29.78S
WAYNE          CLEAR     38  15  38 W8        29.79S WCI  32
$$

NEZ050>053-065>068-078-088>093-210500-
SOUTHEAST NEBRASKA

CITY           SKY/WX    TMP DP  RH WIND       PRES   REMARKS
LINCOLN        CLEAR     47  26  44 W7        29.84S
OMAHA EPPLEY   CLEAR     47  20  34 W8        29.79S
BEATRICE       CLEAR     42  29  59 W6        29.85S
FALLS CITY     PTCLDY    45  28  51 SW9       29.83R
NEBRASKA CITY  MOCLDY    45  21  38 W9        29.82S
PLATTSMOUTH    CLEAR     43  23  44 W6        29.80F
$$

NEZ044-045-051>053-067-210500-
OMAHA AREA

CITY           SKY/WX    TMP DP  RH WIND       PRES   REMARKS
OMAHA EPPLEY   CLEAR     47  20  34 W8        29.79S
BLAIR          CLEAR     44  18  35 W5        29.79S
FREMONT        FAIR      40  27  59 W7        29.81S WCI  35
MILLARD        FAIR      42  29  59 CALM      29.81S
OFFUTT AFB     CLEAR     42  26  52 W6        29.79S
PLATTSMOUTH    CLEAR     43  23  44 W6        29.80F
WAHOO          FAIR      42  26  52 W9        29.81S
$$


USA.gov is the U.S. government's official web portal to all federal, state and local government web resources and services.